Time,TemperatureF,DewpointF,PressureIn,WindDirection,WindDirectionDegrees,WindSpeedMPH,WindSpeedGustMPH,Humidity,HourlyPrecipIn,Conditions,Clouds,dailyrainin,SoftwareType,DateUTC
2013-06-04 00:03:00,57.0,48.0,30.05,NE,46,0.0,-999.0,72,-99.99,,,0.00,weatherlink.com 1.10,2013-06-04 05:03:00,
2013-06-04 00:18:00,56.6,48.0,30.05,NE,40,0.0,-999.0,73,-99.99,,,0.00,weatherlink.com 1.10,2013-06-04 05:18:00,
2013-06-04 00:33:00,56.4,48.0,30.05,NE,42,0.0,-999.0,74,-99.99,,,0.00,weatherlink.com 1.10,2013-06-04 05:33:00,
2013-06-04 00:48:00,56.3,48.0,30.05,NE,34,0.0,-999.0,74,-99.99,,,0.00,weatherlink.com 1.10,2013-06-04 05:48:00,
2013-06-04 01:04:00,56.2,48.0,30.06,NE,35,0.0,-999.0,75,-99.99,,,0.00,weatherlink.com 1.10,2013-06-04 06:04:00,
2013-06-04 01:19:00,56.0,48.0,30.06,NE,35,0.0,-999.0,75,-99.99,,,0.00,weatherlink.com 1.10,2013-06-04 06:19:00,
2013-06-04 01:34:00,55.9,48.0,30.06,NNE,31,0.0,-999.0,75,-99.99,,,0.00,weatherlink.com 1.10,2013-06-04 06:34:00,
2013-06-04 01:49:00,56.0,48.0,30.06,NNE,31,0.0,-999.0,74,-99.99,,,0.00,weatherlink.com 1.10,2013-06-04 06:49:00,
2013-06-04 02:03:00,55.9,48.0,30.06,NNE,31,0.0,-999.0,74,-99.99,,,0.00,weatherlink.com 1.10,2013-06-04 07:03:00,
2013-06-04 02:18:00,55.4,48.0,30.06,NNE,32,0.0,-999.0,75,-99.99,,,0.00,weatherlink.com 1.10,2013-06-04 07:18:00,
2013-06-04 02:33:00,54.8,48.0,30.06,NNE,32,0.0,-999.0,77,-99.99,,,0.00,weatherlink.com 1.10,2013-06-04 07:33:00,
2013-06-04 02:48:00,54.4,48.0,30.05,NE,40,0.0,-999.0,79,-99.99,,,0.00,weatherlink.com 1.10,2013-06-04 07:48:00,
2013-06-04 03:04:00,54.4,48.0,30.07,NE,40,0.0,-999.0,79,-99.99,,,0.00,weatherlink.com 1.10,2013-06-04 08:04:00,
2013-06-04 03:19:00,54.4,48.0,30.07,NE,40,0.0,-999.0,78,-99.99,,,0.00,weatherlink.com 1.10,2013-06-04 08:19:00,
2013-06-04 03:34:00,54.1,48.0,30.07,NE,40,0.0,-999.0,79,-99.99,,,0.00,weatherlink.com 1.10,2013-06-04 08:34:00,
2013-06-04 03:49:00,54.0,48.0,30.09,NE,40,0.0,-999.0,79,-99.99,,,0.00,weatherlink.com 1.10,2013-06-04 08:49:00,
2013-06-04 04:04:00,53.8,47.0,30.08,NE,40,0.0,-999.0,79,-99.99,,,0.00,weatherlink.com 1.10,2013-06-04 09:04:00,
2013-06-04 04:19:00,53.3,47.0,30.08,NE,41,0.0,-999.0,80,-99.99,,,0.00,weatherlink.com 1.10,2013-06-04 09:19:00,
2013-06-04 04:34:00,53.3,47.0,30.08,NE,44,0.0,-999.0,80,-99.99,,,0.00,weatherlink.com 1.10,2013-06-04 09:34:00,
2013-06-04 04:49:00,53.1,47.0,30.10,NE,44,0.0,-999.0,81,-99.99,,,0.00,weatherlink.com 1.10,2013-06-04 09:49:00,
2013-06-04 05:03:00,52.7,47.0,30.11,NE,44,0.0,-999.0,82,-99.99,,,0.00,weatherlink.com 1.10,2013-06-04 10:03:00,
2013-06-04 05:19:00,52.3,47.0,30.11,NE,44,0.0,-999.0,83,-99.99,,,0.00,weatherlink.com 1.10,2013-06-04 10:19:00,
2013-06-04 05:34:00,52.1,47.0,30.10,NE,44,0.0,-999.0,84,-99.99,,,0.00,weatherlink.com 1.10,2013-06-04 10:34:00,
2013-06-04 05:49:00,52.2,48.0,30.10,NE,45,0.0,-999.0,84,-99.99,,,0.00,weatherlink.com 1.10,2013-06-04 10:49:00,
2013-06-04 06:04:00,52.9,48.0,30.10,East,84,0.0,-999.0,84,-99.99,,,0.00,weatherlink.com 1.10,2013-06-04 11:04:00,
2013-06-04 06:19:00,53.6,48.0,30.10,East,94,0.0,-999.0,82,-99.99,,,0.00,weatherlink.com 1.10,2013-06-04 11:19:00,
2013-06-04 06:34:00,53.9,49.0,30.09,East,98,0.0,-999.0,82,-99.99,,,0.00,weatherlink.com 1.10,2013-06-04 11:34:00,
2013-06-04 06:49:00,54.7,49.0,30.09,ESE,105,0.0,-999.0,81,-99.99,,,0.00,weatherlink.com 1.10,2013-06-04 11:49:00,
2013-06-04 07:04:00,55.6,50.0,30.09,East,101,0.0,-999.0,80,-99.99,,,0.00,weatherlink.com 1.10,2013-06-04 12:04:00,
2013-06-04 07:19:00,56.8,50.0,30.09,ESE,116,0.0,-999.0,78,-99.99,,,0.00,weatherlink.com 1.10,2013-06-04 12:19:00,
2013-06-04 07:34:00,58.4,50.0,30.09,ESE,105,0.0,-999.0,74,-99.99,,,0.00,weatherlink.com 1.10,2013-06-04 12:34:00,
2013-06-04 07:49:00,59.7,51.0,30.08,SE,144,5.0,-999.0,72,-99.99,,,0.00,weatherlink.com 1.10,2013-06-04 12:49:00,
2013-06-04 08:04:00,60.7,50.0,30.08,SE,135,6.0,-999.0,69,-99.99,,,0.00,weatherlink.com 1.10,2013-06-04 13:04:00,
2013-06-04 08:20:00,61.4,50.0,30.10,SE,135,9.0,-999.0,66,-99.99,,,0.00,weatherlink.com 1.10,2013-06-04 13:20:00,
2013-06-04 08:35:00,62.4,50.0,30.10,ESE,115,6.0,-999.0,64,-99.99,,,0.00,weatherlink.com 1.10,2013-06-04 13:35:00,
2013-06-04 08:50:00,63.4,50.0,30.10,ESE,116,4.0,-999.0,62,-99.99,,,0.00,weatherlink.com 1.10,2013-06-04 13:50:00,
2013-06-04 09:05:00,64.1,49.0,30.09,SSE,153,8.0,-999.0,59,-99.99,,,0.00,weatherlink.com 1.10,2013-06-04 14:05:00,
2013-06-04 09:20:00,64.4,49.0,30.09,SE,132,10.0,-999.0,58,-99.99,,,0.00,weatherlink.com 1.10,2013-06-04 14:20:00,
2013-06-04 09:35:00,65.3,48.0,30.09,SE,138,9.0,-999.0,54,-99.99,,,0.00,weatherlink.com 1.10,2013-06-04 14:35:00,
2013-06-04 09:50:00,65.5,49.0,30.09,SE,125,3.0,-999.0,56,-99.99,,,0.00,weatherlink.com 1.10,2013-06-04 14:50:00,
2013-06-04 10:05:00,66.3,50.0,30.09,SSE,148,0.0,-999.0,56,-99.99,,,0.00,weatherlink.com 1.10,2013-06-04 15:05:00,
2013-06-04 10:20:00,66.8,49.0,30.09,ESE,102,6.0,-999.0,54,-99.99,,,0.00,weatherlink.com 1.10,2013-06-04 15:20:00,
2013-06-04 10:35:00,67.0,51.0,30.09,SE,145,7.0,-999.0,57,-99.99,,,0.00,weatherlink.com 1.10,2013-06-04 15:35:00,
2013-06-04 10:50:00,67.5,50.0,30.10,SE,142,3.0,-999.0,54,-99.99,,,0.00,weatherlink.com 1.10,2013-06-04 15:50:00,
2013-06-04 11:05:00,68.0,50.0,30.09,ENE,57,4.0,-999.0,53,-99.99,,,0.00,weatherlink.com 1.10,2013-06-04 16:05:00,
2013-06-04 11:20:00,68.6,50.0,30.09,SE,126,5.0,-999.0,52,-99.99,,,0.00,weatherlink.com 1.10,2013-06-04 16:20:00,
2013-06-04 11:35:00,69.2,51.0,30.09,ENE,65,0.0,-999.0,52,-99.99,,,0.00,weatherlink.com 1.10,2013-06-04 16:35:00,
2013-06-04 11:50:00,69.7,49.0,30.09,SSE,148,6.0,-999.0,48,-99.99,,,0.00,weatherlink.com 1.10,2013-06-04 16:50:00,
2013-06-04 12:05:00,70.2,51.0,30.09,ENE,60,3.0,-999.0,50,-99.99,,,0.00,weatherlink.com 1.10,2013-06-04 17:05:00,
2013-06-04 12:20:00,70.3,50.0,30.09,ESE,117,0.0,-999.0,48,-99.99,,,0.00,weatherlink.com 1.10,2013-06-04 17:20:00,
2013-06-04 12:35:00,70.3,50.0,30.09,SE,142,0.0,-999.0,48,-99.99,,,0.00,weatherlink.com 1.10,2013-06-04 17:35:00,
2013-06-04 12:50:00,70.6,49.0,30.09,ESE,107,5.0,-999.0,47,-99.99,,,0.00,weatherlink.com 1.10,2013-06-04 17:50:00,
2013-06-04 13:06:00,70.8,50.0,30.08,SE,135,4.0,-999.0,48,-99.99,,,0.00,weatherlink.com 1.10,2013-06-04 18:06:00,
2013-06-04 13:21:00,71.5,49.0,30.08,SSE,161,2.0,-999.0,45,-99.99,,,0.00,weatherlink.com 1.10,2013-06-04 18:21:00,
2013-06-04 13:36:00,71.8,49.0,30.07,ESE,102,0.0,-999.0,45,-99.99,,,0.00,weatherlink.com 1.10,2013-06-04 18:36:00,
2013-06-04 13:51:00,71.7,49.0,30.07,ESE,112,5.0,-999.0,44,-99.99,,,0.00,weatherlink.com 1.10,2013-06-04 18:51:00,
2013-06-04 14:06:00,72.1,49.0,30.08,SE,134,3.0,-999.0,44,-99.99,,,0.00,weatherlink.com 1.10,2013-06-04 19:06:00,
2013-06-04 14:21:00,72.5,49.0,30.08,East,96,0.0,-999.0,43,-99.99,,,0.00,weatherlink.com 1.10,2013-06-04 19:21:00,
2013-06-04 14:36:00,72.9,50.0,30.08,East,92,0.0,-999.0,44,-99.99,,,0.00,weatherlink.com 1.10,2013-06-04 19:36:00,
2013-06-04 14:51:00,73.6,49.0,30.06,SE,140,6.0,-999.0,42,-99.99,,,0.00,weatherlink.com 1.10,2013-06-04 19:51:00,
2013-06-04 15:06:00,73.3,49.0,30.05,SE,132,0.0,-999.0,42,-99.99,,,0.00,weatherlink.com 1.10,2013-06-04 20:06:00,
2013-06-04 15:21:00,73.8,50.0,30.05,East,88,2.0,-999.0,44,-99.99,,,0.00,weatherlink.com 1.10,2013-06-04 20:21:00,
2013-06-04 15:51:00,73.5,50.0,30.04,SE,139,1.0,-999.0,43,-99.99,,,0.00,weatherlink.com 1.10,2013-06-04 20:51:00,
2013-06-04 16:06:00,73.8,50.0,30.04,SSE,150,10.0,-999.0,44,-99.99,,,0.00,weatherlink.com 1.10,2013-06-04 21:06:00,
2013-06-04 16:21:00,73.7,50.0,30.04,SE,124,0.0,-999.0,43,-99.99,,,0.00,weatherlink.com 1.10,2013-06-04 21:21:00,
2013-06-04 16:36:00,73.5,50.0,30.04,ESE,123,0.0,-999.0,44,-99.99,,,0.00,weatherlink.com 1.10,2013-06-04 21:36:00,
2013-06-04 16:51:00,73.8,50.0,30.03,SE,135,2.0,-999.0,44,-99.99,,,0.00,weatherlink.com 1.10,2013-06-04 21:51:00,
2013-06-04 17:06:00,73.8,51.0,30.03,SE,129,0.0,-999.0,45,-99.99,,,0.00,weatherlink.com 1.10,2013-06-04 22:06:00,
2013-06-04 17:21:00,73.7,50.0,30.03,ESE,122,0.0,-999.0,44,-99.99,,,0.00,weatherlink.com 1.10,2013-06-04 22:21:00,
2013-06-04 18:21:00,72.8,52.0,30.03,SE,126,0.0,-999.0,48,-99.99,,,0.00,weatherlink.com 1.10,2013-06-04 23:21:00,
2013-06-04 18:36:00,72.6,53.0,30.03,ESE,112,0.0,-999.0,50,-99.99,,,0.00,weatherlink.com 1.10,2013-06-04 23:36:00,
2013-06-04 18:51:00,72.2,53.0,30.03,ENE,67,0.0,-999.0,51,-99.99,,,0.00,weatherlink.com 1.10,2013-06-04 23:51:00,
2013-06-04 19:06:00,71.6,53.0,30.03,ENE,57,0.0,-999.0,52,-99.99,,,0.00,weatherlink.com 1.10,2013-06-05 00:06:00,
2013-06-04 19:21:00,71.0,53.0,30.02,ENE,59,0.0,-999.0,53,-99.99,,,0.00,weatherlink.com 1.10,2013-06-05 00:21:00,
2013-06-04 19:36:00,70.3,53.0,30.02,East,82,0.0,-999.0,55,-99.99,,,0.00,weatherlink.com 1.10,2013-06-05 00:36:00,
2013-06-04 19:51:00,69.7,53.0,30.02,ENE,73,0.0,-999.0,55,-99.99,,,0.00,weatherlink.com 1.10,2013-06-05 00:51:00,
2013-06-04 20:07:00,69.2,52.0,30.02,East,92,0.0,-999.0,54,-99.99,,,0.00,weatherlink.com 1.10,2013-06-05 01:07:00,
2013-06-04 20:22:00,68.6,52.0,30.02,ESE,114,0.0,-999.0,56,-99.99,,,0.00,weatherlink.com 1.10,2013-06-05 01:22:00,
2013-06-04 20:37:00,67.9,52.0,30.02,ESE,114,0.0,-999.0,58,-99.99,,,0.00,weatherlink.com 1.10,2013-06-05 01:37:00,
2013-06-04 20:52:00,67.4,52.0,30.03,East,90,0.0,-999.0,59,-99.99,,,0.00,weatherlink.com 1.10,2013-06-05 01:52:00,
2013-06-04 21:06:00,66.9,53.0,30.02,NE,44,0.0,-999.0,61,-99.99,,,0.00,weatherlink.com 1.10,2013-06-05 02:06:00,
2013-06-04 21:21:00,66.4,52.0,30.03,North,5,0.0,-999.0,61,-99.99,,,0.00,weatherlink.com 1.10,2013-06-05 02:21:00,
2013-06-04 21:36:00,66.1,52.0,30.03,ESE,108,0.0,-999.0,61,-99.99,,,0.00,weatherlink.com 1.10,2013-06-05 02:36:00,
2013-06-04 22:07:00,65.4,52.0,30.04,NE,34,0.0,-999.0,63,-99.99,,,0.00,weatherlink.com 1.10,2013-06-05 03:07:00,
2013-06-04 22:22:00,65.1,52.0,30.03,NE,44,0.0,-999.0,63,-99.99,,,0.00,weatherlink.com 1.10,2013-06-05 03:22:00,
2013-06-04 22:37:00,64.9,52.0,30.03,SE,128,0.0,-999.0,63,-99.99,,,0.00,weatherlink.com 1.10,2013-06-05 03:37:00,
2013-06-04 22:52:00,64.9,51.0,30.04,ESE,113,0.0,-999.0,62,-99.99,,,0.00,weatherlink.com 1.10,2013-06-05 03:52:00,
2013-06-04 23:07:00,64.8,51.0,30.04,East,96,0.0,-999.0,62,-99.99,,,0.00,weatherlink.com 1.10,2013-06-05 04:07:00,
2013-06-04 23:22:00,64.3,51.0,30.03,East,96,0.0,-999.0,63,-99.99,,,0.00,weatherlink.com 1.10,2013-06-05 04:22:00,
2013-06-04 23:37:00,63.9,52.0,30.03,East,96,0.0,-999.0,65,-99.99,,,0.00,weatherlink.com 1.10,2013-06-05 04:37:00,
2013-06-04 23:52:00,63.6,52.0,30.02,ESE,105,0.0,-999.0,66,-99.99,,,0.00,weatherlink.com 1.10,2013-06-05 04:52:00,